Regional Weather Roundup
Issued by NWS State College, PA

Home | Current Version | Previous Version | Graphics & Text | Print | Product List | Glossary Off
Versions: 1 2 3 4 5 6 7 8 9 10 11 12 13 14 15 16 17 18 19 20 21 22 23 24 25 26 27 28 29 30 31 32 33 34 35 36 37 38 39 40 41 42 43 44 45 46 47 48 49 50

000
ASUS41 KCTP 200003
RWRCTP

REGIONAL WEATHER ROUNDUP
NATIONAL WEATHER SERVICE STATE COLLEGE PA
800 PM EDT SUN OCT 19 2014

Note: "fair" indicates few or no clouds below 12,000 feet with no
significant weather and/or obstructions to visibility.

* = STATION THAT DOES NOT REPORT PRECIPITATION /E.G. RAIN...SNOW...ETC/
    THUNDER OR FOG.

PAZ002>004-007>009-013>016-020>023-029>032-200100-
WESTERN PENNSYLVANIA

CITY           SKY/WX    TMP DP  RH WIND       PRES   REMARKS
ERIE           MOCLDY    43  36  76 S5        30.07F
MEADVILLE      CLOUDY    44  31  60 CALM      30.07S
FRANKLIN*      CLOUDY    45  28  53 SW3       30.09S
NEW CASTLE       N/A     43  33  67 CALM      30.10F
BEAVER COUNTY  NOT AVBL
BUTLER*        PTCLDY    43  30  61 CALM      30.11S
PITTSBURGH INT CLOUDY    46  34  62 CALM      30.09S
PITTSBURGH     PTCLDY    48  30  49 SW6       30.09S
INDIANA*       CLEAR     45  34  65 CALM      30.12S
LATROBE        PTCLDY    45  36  70 CALM      30.11R
WASHINGTON CO* PTCLDY    39  34  81 CALM      30.11S
$$

PAZ004>006-010>012-017>019-024>028-033>037-041-042-045-046-049>053-200100-
CENTRAL PENNSYLVANIA

CITY           SKY/WX    TMP DP  RH WIND       PRES   REMARKS
BRADFORD       CLEAR     37  28  70 CALM      30.05S
DUBOIS         CLEAR     42  31  64 W6        30.06R
CLEARFIELD     CLEAR     44  30  57 W6        30.07R
JOHNSTOWN      CLEAR     42  30  62 W7        30.07R
ALTOONA        CLEAR     43  33  68 W8        30.08R
STATE COLLEGE  CLEAR     45  30  57 CALM      30.06R
WILLIAMSPORT   CLEAR     43  30  60 CALM      30.05R
SELINSGROVE    CLEAR     41  35  79 CALM      30.06R
FT INDIANTOWN  CLEAR     43  35  73 CALM      30.06R
CAPITAL CITY   CLEAR     49  29  46 W7        30.07R
HARRISBURG     MOCLDY    48  31  51 NW8       30.06R
YORK           CLEAR     40  33  76 CALM      30.06R
$$

PAZ038>040-043-044-047-048-054-055-060>062-067>071-200100-
EASTERN PENNSYLVANIA

CITY           SKY/WX    TMP DP  RH WIND       PRES   REMARKS
SCRANTON       CLEAR     42  27  55 N3        30.05R
MOUNT POCONO   CLEAR     37  26  64 NW6       30.02R
ALLENTOWN      CLEAR     43  28  55 N6        30.05R
QUAKERTOWN*    CLEAR     39  30  70 NE3       30.06R
READING        CLEAR     46  32  58 CALM      30.05R
LANCASTER      CLEAR     46  31  55 NW3       30.06R
COATESVILLE    CLEAR     46  30  53 SW3       30.06R
POTTSTOWN      CLEAR     43  31  62 CALM      30.07R
BLUE BELL      CLEAR     41  36  81 CALM      30.04R
DOYLESTOWN     CLEAR     42  30  62 CALM      30.04R
WILLOW GROVE   NOT AVBL
NORTH PHILA    CLEAR     50  25  37 W3        30.07R
PHILADELPHIA   CLEAR     52  26  36 NW5       30.07R
$$



USA.gov is the U.S. government's official web portal to all federal, state and local government web resources and services.